User: anonymous   Login
Location: St. Malo Provincial Park
(49.3214°N, 96.9305°W)
Time: 13:56:28
(UTC-05:00)
Language:

Iridium 6 - Orbit

View from above orbital plane
View from above orbital plane
View from above satellite
View from above satellite

Ground track
Ground track

The orbit data is extracted from the following two-line orbital elements,

1 24794U 97020C   16270.49887243 -.00000084  00000-0 -36961-4 0  9998
2 24794  86.3933  69.1314 0002025  88.4255 271.7173 14.34212814 15403
Epoch (UTC): 26 September 2016 11:58:22
Eccentricity: 0.0002025
inclination: 86.3933°
perigee height: 776 km
apogee height: 779 km
right ascension of ascending node: 69.1314°
argument of perigee: 88.4255°
revolutions per day: 14.34212814
mean anomaly at epoch: 271.7173°
orbit number at epoch: 1540

The dashed part of the orbit path shows where the satellite is in the earth's shadow,  

DLR